N66M KSNA-KVCV

Flight info

Callsign N66M
Flight time 0h 26m
Altitude 17000
Route MUSEL8 SLI V8 PDZ V442 APLES
Aircraft E55P/L-VGDW/C

Departure

Time 2026-05-04 01:10
Airport John Wayne Orange County International Airport (KSNA)

Arrival

Time 2026-05-04 01:37
Airport Southern California Logistics Airport (KVCV)
Time Latitude Longitude Altitude Speed Heading
2026-05-04 00:34 33.67432 -117.87206 66 ft 0 kts 299°
2026-05-04 00:56 33.67434 -117.87212 60 ft 1 kts 266°
2026-05-04 00:56 33.67419 -117.87230 60 ft 3 kts 211°
2026-05-04 00:56 33.67393 -117.87222 60 ft 5 kts 127°
2026-05-04 00:57 33.67377 -117.87180 60 ft 6 kts 88°
2026-05-04 00:57 33.67410 -117.87136 60 ft 8 kts 28°
2026-05-04 00:57 33.67469 -117.87099 60 ft 10 kts 28°
2026-05-04 00:57 33.67541 -117.87051 59 ft 13 kts 27°
2026-05-04 00:58 33.67631 -117.86996 58 ft 15 kts 27°
2026-05-04 00:58 33.67735 -117.86930 56 ft 18 kts 28°
2026-05-04 00:58 33.67853 -117.86854 53 ft 19 kts 28°
2026-05-04 00:58 33.67980 -117.86793 50 ft 20 kts 18°
2026-05-04 00:59 33.68098 -117.86724 48 ft 15 kts 28°
2026-05-04 00:59 33.68178 -117.86665 47 ft 11 kts 49°
2026-05-04 00:59 33.68195 -117.86615 46 ft 2 kts 94°
2026-05-04 00:59 33.68194 -117.86613 46 ft 0 kts 95°
2026-05-04 01:08 33.68194 -117.86612 46 ft 0 kts 97°
2026-05-04 01:08 33.68190 -117.86595 46 ft 3 kts 109°
2026-05-04 01:08 33.68179 -117.86565 47 ft 4 kts 119°
2026-05-04 01:08 33.68150 -117.86543 47 ft 6 kts 173°
2026-05-04 01:09 33.68105 -117.86549 48 ft 6 kts 197°
2026-05-04 01:09 33.68088 -117.86557 48 ft 0 kts 206°
2026-05-04 01:09 33.68067 -117.86571 48 ft 16 kts 212°
2026-05-04 01:09 33.67735 -117.86784 54 ft 90 kts 205°
2026-05-04 01:10 33.67013 -117.87241 168 ft 133 kts 209°
2026-05-04 01:10 33.66153 -117.87804 651 ft 153 kts 207°
2026-05-04 01:10 33.65141 -117.88268 1288 ft 166 kts 190°
2026-05-04 01:10 33.63898 -117.88464 1851 ft 191 kts 188°
2026-05-04 01:11 33.62541 -117.88673 2596 ft 206 kts 188°
2026-05-04 01:11 33.61071 -117.88900 3344 ft 221 kts 188°
2026-05-04 01:11 33.59529 -117.89137 4149 ft 232 kts 188°
2026-05-04 01:11 33.57912 -117.89386 4948 ft 237 kts 188°
2026-05-04 01:12 33.56274 -117.89662 5728 ft 242 kts 189°
2026-05-04 01:12 33.54696 -117.90243 6491 ft 244 kts 216°
2026-05-04 01:12 33.53740 -117.91845 7304 ft 246 kts 254°
2026-05-04 01:12 33.53786 -117.93908 7943 ft 258 kts 280°
2026-05-04 01:13 33.54189 -117.96033 8007 ft 266 kts 281°
2026-05-04 01:13 33.54605 -117.98196 7998 ft 266 kts 281°
2026-05-04 01:13 33.55020 -118.00371 8006 ft 266 kts 281°
2026-05-04 01:13 33.55434 -118.02536 8009 ft 267 kts 281°
2026-05-04 01:14 33.55848 -118.04714 8068 ft 279 kts 281°
2026-05-04 01:14 33.56287 -118.07063 8491 ft 295 kts 281°
2026-05-04 01:14 33.56734 -118.09460 9082 ft 302 kts 281°
2026-05-04 01:14 33.57222 -118.11923 9658 ft 310 kts 287°
2026-05-04 01:15 33.58437 -118.14079 10238 ft 320 kts 319°
2026-05-04 01:15 33.60459 -118.15229 10836 ft 329 kts 348°
2026-05-04 01:15 33.62753 -118.15283 11446 ft 334 kts
2026-05-04 01:15 33.65097 -118.15005 12005 ft 345 kts 16°
2026-05-04 01:16 33.67194 -118.13659 12614 ft 351 kts 32°
2026-05-04 01:16 33.69326 -118.12119 12947 ft 364 kts 31°
2026-05-04 01:16 33.71524 -118.10489 12997 ft 372 kts 31°
2026-05-04 01:16 33.73743 -118.08855 13001 ft 376 kts 31°
2026-05-04 01:17 33.75990 -118.07201 13000 ft 380 kts 31°
2026-05-04 01:17 33.78041 -118.05205 12982 ft 384 kts 52°
2026-05-04 01:17 33.79258 -118.02379 12993 ft 381 kts 77°
2026-05-04 01:17 33.79955 -117.99284 13220 ft 387 kts 74°
2026-05-04 01:18 33.80737 -117.96184 13701 ft 392 kts 76°
2026-05-04 01:18 33.81559 -117.93040 14170 ft 397 kts 75°
2026-05-04 01:18 33.82387 -117.89830 14772 ft 404 kts 75°
2026-05-04 01:18 33.83215 -117.86609 15453 ft 409 kts 75°
2026-05-04 01:19 33.84063 -117.83328 16087 ft 415 kts 75°
2026-05-04 01:19 33.84919 -117.80005 16667 ft 421 kts 75°
2026-05-04 01:19 33.85777 -117.76592 16981 ft 435 kts 76°
2026-05-04 01:19 33.86652 -117.73060 17036 ft 443 kts 73°
2026-05-04 01:20 33.87571 -117.69511 17049 ft 452 kts 74°
2026-05-04 01:20 33.88524 -117.65848 17045 ft 456 kts 74°
2026-05-04 01:20 33.89455 -117.62243 17029 ft 454 kts 73°
2026-05-04 01:20 33.90387 -117.58617 17028 ft 455 kts 73°
2026-05-04 01:21 33.91494 -117.55081 17006 ft 455 kts 60°
2026-05-04 01:21 33.93478 -117.52176 17026 ft 449 kts 38°
2026-05-04 01:21 33.96075 -117.50234 17017 ft 436 kts 16°
2026-05-04 01:21 33.98874 -117.48776 17014 ft 441 kts 24°
2026-05-04 01:22 34.01620 -117.47151 17013 ft 438 kts 20°
2026-05-04 01:22 34.04354 -117.45481 17019 ft 438 kts 21°
2026-05-04 01:22 34.07072 -117.43864 17068 ft 439 kts 21°
2026-05-04 01:22 34.09833 -117.42206 17041 ft 440 kts 21°
2026-05-04 01:23 34.12544 -117.40568 17043 ft 438 kts 21°
2026-05-04 01:23 34.15301 -117.38908 17103 ft 440 kts 22°
2026-05-04 01:23 34.18037 -117.37259 17174 ft 444 kts 21°
2026-05-04 01:23 34.20810 -117.35584 17168 ft 445 kts 22°
2026-05-04 01:24 34.23577 -117.33913 17129 ft 447 kts 22°
2026-05-04 01:24 34.26382 -117.32219 17037 ft 446 kts 22°
2026-05-04 01:24 34.29167 -117.30534 17013 ft 440 kts 22°
2026-05-04 01:24 34.31864 -117.28903 16984 ft 431 kts 22°
2026-05-04 01:25 34.34566 -117.27269 16641 ft 430 kts 23°
2026-05-04 01:25 34.37205 -117.25668 16137 ft 419 kts 23°
2026-05-04 01:25 34.39790 -117.24102 15598 ft 408 kts 23°
2026-05-04 01:25 34.42289 -117.22585 15084 ft 398 kts 23°
2026-05-04 01:26 34.44753 -117.21090 14538 ft 395 kts 23°
2026-05-04 01:26 34.47197 -117.19606 14062 ft 390 kts 23°
2026-05-04 01:26 34.49699 -117.18476 13568 ft 378 kts
2026-05-04 01:26 34.52279 -117.18481 13105 ft 367 kts 354°
2026-05-04 01:27 34.54829 -117.18359 12638 ft 365 kts 359°
2026-05-04 01:27 34.57341 -117.18287 12146 ft 358 kts 357°
2026-05-04 01:27 34.59792 -117.18281 11571 ft 347 kts 357°
2026-05-04 01:27 34.62167 -117.18284 11003 ft 338 kts 357°
2026-05-04 01:28 34.64486 -117.18288 10437 ft 330 kts 358°
2026-05-04 01:28 34.66773 -117.18292 9865 ft 324 kts 358°
2026-05-04 01:28 34.69007 -117.18296 9291 ft 319 kts 358°
2026-05-04 01:28 34.71218 -117.18301 8719 ft 314 kts 359°
2026-05-04 01:29 34.73387 -117.18305 8164 ft 310 kts 359°
2026-05-04 01:29 34.75502 -117.18309 7668 ft 301 kts 358°
2026-05-04 01:29 34.77425 -117.18911 7072 ft 277 kts 324°
2026-05-04 01:29 34.78657 -117.20583 6596 ft 264 kts 293°
2026-05-04 01:30 34.79213 -117.22660 6059 ft 258 kts 272°
2026-05-04 01:30 34.79317 -117.24826 5533 ft 256 kts 266°
2026-05-04 01:30 34.79314 -117.26981 4989 ft 256 kts 265°
2026-05-04 01:30 34.79282 -117.29121 4534 ft 252 kts 264°
2026-05-04 01:31 34.79253 -117.31195 4450 ft 234 kts 264°
2026-05-04 01:31 34.79045 -117.33035 4419 ft 207 kts 240°
2026-05-04 01:31 34.78070 -117.34150 4458 ft 188 kts 210°
2026-05-04 01:31 34.76995 -117.35027 4456 ft 182 kts 214°
2026-05-04 01:32 34.75853 -117.35549 4454 ft 176 kts 184°
2026-05-04 01:32 34.74659 -117.35540 4509 ft 166 kts 182°
2026-05-04 01:32 34.73500 -117.35530 4339 ft 164 kts 182°
2026-05-04 01:32 34.72355 -117.35500 4145 ft 165 kts 178°
2026-05-04 01:33 34.71242 -117.35223 3994 ft 161 kts 170°
2026-05-04 01:33 34.70184 -117.34913 3958 ft 149 kts 171°
2026-05-04 01:33 34.69224 -117.34633 3960 ft 137 kts 170°
2026-05-04 01:33 34.68343 -117.34373 3952 ft 123 kts 170°
2026-05-04 01:34 34.67502 -117.34134 3986 ft 127 kts 169°
2026-05-04 01:34 34.66571 -117.33887 3746 ft 145 kts 170°
2026-05-04 01:34 34.65609 -117.33682 3781 ft 134 kts 173°
2026-05-04 01:34 34.64679 -117.33575 3733 ft 131 kts 178°
2026-05-04 01:35 34.63770 -117.33630 3744 ft 135 kts 189°
2026-05-04 01:35 34.62879 -117.34011 3743 ft 137 kts 205°
2026-05-04 01:35 34.62096 -117.34578 3471 ft 128 kts 207°
2026-05-04 01:35 34.61364 -117.35198 3221 ft 125 kts 212°
2026-05-04 01:36 34.60709 -117.35876 3045 ft 122 kts 217°
2026-05-04 01:36 34.60118 -117.36585 2904 ft 115 kts 217°
2026-05-04 01:36 34.59574 -117.37221 2864 ft 97 kts 220°
2026-05-04 01:36 34.59143 -117.37736 2871 ft 73 kts 223°
2026-05-04 01:37 34.58868 -117.38063 2877 ft 45 kts 224°
2026-05-04 01:37 34.58662 -117.38308 2880 ft 35 kts 219°
2026-05-04 01:37 34.58516 -117.38425 2881 ft 16 kts 193°
2026-05-04 01:37 34.58413 -117.38423 2884 ft 13 kts 134°
2026-05-04 01:38 34.58411 -117.38332 2884 ft 12 kts 51°
2026-05-04 01:38 34.58487 -117.38236 2883 ft 18 kts 45°
2026-05-04 01:38 34.58593 -117.38107 2882 ft 24 kts 46°
2026-05-04 01:38 34.58730 -117.37943 2879 ft 28 kts 45°
2026-05-04 01:39 34.58852 -117.37789 2877 ft 17 kts 65°
2026-05-04 01:39 34.58841 -117.37669 2877 ft 13 kts 127°
2026-05-04 01:39 34.58818 -117.37577 2878 ft 10 kts 76°
2026-05-04 01:39 34.58872 -117.37539 2876 ft 8 kts 354°
2026-05-04 01:40 34.58909 -117.37575 2875 ft 2 kts 316°
2026-05-04 01:40 34.58911 -117.37577 2875 ft 0 kts 316°